Regional Weather Roundup
Issued by NWS Little Rock, AR

Home | Current Version | Previous Version | Text Only | Print | Product List | Glossary On
Versions: 1 2 3 4 5 6 7 8 9 10 11 12 13 14 15 16 17 18 19 20 21 22 23 24 25 26 27 28 29 30 31 32 33 34 35 36 37 38 39 40 41 42 43 44 45 46 47 48 49 50
000
ASUS44 KLZK 281505
RWRLZK

WEATHER ROUNDUP FOR ARKANSAS
NATIONAL WEATHER SERVICE LITTLE ROCK AR
1000 AM CDT FRI AUG 28 2015

NOTE: "FAIR" INDICATES FEW OR NO CLOUDS BELOW 12,000 FEET WITH NO
SIGNIFICANT WEATHER AND/OR OBSTRUCTIONS TO VISIBILITY.

ARZ001-003-010-029-281600-
NORTHWEST ARKANSAS

CITY           SKY/WX    TMP DP  RH WIND       PRES   REMARKS
FAYETTEVILLE   PTSUNNY   72  62  71 S10       30.08S
FORT SMITH     MOSUNNY   72  61  68 E9        30.07S
BENTONVILLE    MOSUNNY   72  59  64 S8        30.08S
ROGERS         MOSUNNY   70  61  73 SE8       30.09S
SILOAM SPGS    MOSUNNY   72  59  64 S8        30.06S
HIGHFILL       MOSUNNY   72  62  71 S10       30.07S
SPRINGDALE     MOSUNNY   72  61  68 SE8       30.10S
$$

ARZ004-005-016-281600-
NORTH CENTRAL ARKANSAS

CITY           SKY/WX    TMP DP  RH WIND       PRES   REMARKS
BATESVILLE     SUNNY     72  63  73 CALM      30.10S
FLIPPIN        MOSUNNY   66  59  77 SE5       30.10S
MTN HOME       MOSUNNY   68  62  81 SE3       30.11R
$$

ARZ040-041-281600-
WEST CENTRAL ARKANSAS

CITY           SKY/WX    TMP DP  RH WIND       PRES   REMARKS
MENA           SUNNY     70  63  78 CALM      30.11R
MOUNT IDA      SUNNY     73  63  70 CALM      30.07S
$$

ARZ009-017-025-026-028-281600-
NORTHEAST ARKANSAS

CITY           SKY/WX    TMP DP  RH WIND       PRES   REMARKS
JONESBORO      SUNNY     73  65  75 E6        30.10S
NEWPORT        SUNNY     74  65  73 CALM      30.11S
WALNUT RIDGE   SUNNY     72  63  73 E3        30.11R
BLYTHEVILLE    SUNNY     75  65  70 E5        30.10F
$$

ARZ022-023-033-042-044-281600-
CENTRAL ARKANSAS

CITY           SKY/WX    TMP DP  RH WIND       PRES   REMARKS
LITTLE ROCK    MOSUNNY   76  60  57 SE3       30.09R
N LITTLE ROCK  MOSUNNY   76  61  59 SE6       30.09R
JACKSONVILLE   SUNNY     76  61  61 SW1       30.08S
SEARCY         SUNNY     75  63  66 VRB3      30.11R
HOT SPRINGS    SUNNY     75  60  59 VRB3      30.10R
RUSSELLVILLE   SUNNY     73  62  68 CALM      30.09R
$$

ARZ036-281600-
EAST ARKANSAS

CITY           SKY/WX    TMP DP  RH WIND       PRES   REMARKS
WEST MEMPHIS   SUNNY     77  64  64 E3        30.08S
$$

ARZ050-053-066-070-073-281600-
SOUTHWEST ARKANSAS

CITY           SKY/WX    TMP DP  RH WIND       PRES   REMARKS
ARKADELPHIA    FAIR      76  63  64 VRB3      30.09R
CAMDEN         SUNNY     75  59  57 CALM      30.07S
TEXARKANA      SUNNY     75  61  61 E6        30.07R
EL DORADO      SUNNY     77  60  55 E8        30.07S
DE QUEEN       SUNNY     73  63  70 VRB3      30.07R
$$

ARZ056-057-069-281600-
SOUTHEAST ARKANSAS

CITY           SKY/WX    TMP DP  RH WIND       PRES   REMARKS
PINE BLUFF     SUNNY     75  65  70 CALM      30.08R
STUTTGART      SUNNY     73  63  68 E5        30.09R
MONTICELLO     SUNNY     77  61  57 E6        30.08R

$$




USA.gov is the U.S. government's official web portal to all federal, state and local government web resources and services.